Weather History for Batman, Turkey

Change the Weather History Date:

Thursday, April 4, 2013

  Actual Average (LTCC) Record (LTCC)
Temperature  
Mean Temperature 60 °F -  
Max Temperature 77 °F 60 °F 74 °F (2013)
Min Temperature 44 °F 40 °F 33 °F (1997)
Degree Days  
Heating Degree Days 4    
Growing Degree Days 10 (Base 50)    
Moisture  
Dew Point 46 °F    
Average Humidity 61    
Maximum Humidity 93    
Minimum Humidity 29    
Precipitation  
Precipitation 0.00 in - - ()
Sea Level Pressure  
Sea Level Pressure 29.77 in    
Wind  
Wind Speed 6 mph ()    
Max Wind Speed 20 mph    
Max Gust Speed 32 mph    
Visibility 5.3 miles    
Events Rain    
Averages and records for this station are not official NWS values.
T = Trace of Precipitation, MM = Missing Value Source: Averaged Metar Reports

Daily Weather History Graph

Daily Weather History Graph

Search for Another Location

Airport:

Trip Planner

Search our weather history database for the weather conditions in past years. The results will help you decide how hot, cold, wet, or windy it might be!

Date:

Astronomy

Apr. 04, 2013 Rise Set
Actual Time 5:56 AM EEST 6:41 PM EEST
Civil Twilight 5:29 AM EEST 7:07 PM EEST
Nautical Twilight 4:58 AM EEST 7:39 PM EEST
Astronomical Twilight 4:26 AM EEST 8:11 PM EEST
Moon 2:01 AM EEST (4/4) 12:41 PM EEST (4/4)
Length of Visible Light 13h 38m
Length of Day
12h 44m
Last Quarter, 37% of the Moon is Illuminated
Apr 4
Last Quarter
Apr 10
New
Apr 18
First Quarter
Apr 25
Full
May 2
Last Quarter

Hourly Weather History & Observations

Time (EEST) Temp. Windchill Dew Point Humidity Pressure Visibility Wind Dir Wind Speed Gust Speed Precip Events Conditions
12:20 AM 48.2 °F - 42.8 °F 82% 29.89 in - NE 8.1 mph - N/A   Clear
12:50 AM 48.2 °F - 44.6 °F 87% 29.89 in - NNE 8.1 mph - N/A   Clear
1:20 AM 48.2 °F - 44.6 °F 87% 29.89 in - NNE 3.5 mph - N/A   Clear
1:50 AM 46.4 °F 43.5 °F 42.8 °F 87% 29.86 in - ENE 5.8 mph - N/A   Clear
2:20 AM 48.2 °F - 44.6 °F 87% 29.86 in - NE 6.9 mph - N/A   Clear
3:20 AM 48.2 °F - 44.6 °F 87% 29.86 in - ENE 3.5 mph - N/A   Clear
3:50 AM 46.4 °F 45.2 °F 44.6 °F 93% 29.86 in - WSW 3.5 mph - N/A   Clear
4:20 AM 46.4 °F 45.2 °F 42.8 °F 87% 29.86 in - SSE 3.5 mph - N/A   Clear
4:50 AM 46.4 °F 44.3 °F 41.0 °F 81% 29.86 in - South 4.6 mph - N/A   Clear
5:20 AM 44.6 °F - 41.0 °F 87% 29.86 in - South 2.3 mph - N/A   Clear
5:50 AM 44.6 °F - 41.0 °F 87% 29.86 in - SSW 2.3 mph - N/A   Clear
6:20 AM 44.6 °F - 41.0 °F 87% 29.86 in - SW 2.3 mph - N/A   Clear
6:50 AM 46.4 °F - 42.8 °F 87% 29.86 in - SSE 2.3 mph - N/A   Clear
7:20 AM 48.2 °F - 44.6 °F 87% 29.86 in 4.3 mi Variable 2.3 mph - N/A   Unknown
7:50 AM 50.0 °F - 44.6 °F 82% 29.86 in 4.3 mi Variable 2.3 mph - N/A   Unknown
8:20 AM 53.6 °F - 46.4 °F 77% 29.86 in 4.3 mi Variable 1.2 mph - N/A   Unknown
8:50 AM 55.4 °F - 48.2 °F 77% 29.86 in 4.3 mi NNE 3.5 mph - N/A   Unknown
9:20 AM 59.0 °F - 48.2 °F 67% 29.86 in 4.3 mi Variable 2.3 mph - N/A   Unknown
9:50 AM 62.6 °F - 51.8 °F 68% 29.83 in 4.3 mi ENE 3.5 mph - N/A   Unknown
10:20 AM 64.4 °F - 53.6 °F 68% 29.83 in 3.1 mi ESE 3.5 mph - N/A   Unknown
10:50 AM 71.6 °F - 53.6 °F 53% 29.83 in 3.1 mi Variable 1.2 mph - N/A   Unknown
11:20 AM 73.4 °F - 51.8 °F 47% 29.80 in 3.1 mi Variable 2.3 mph - N/A   Unknown
11:50 AM 73.4 °F - 53.6 °F 50% 29.80 in 3.1 mi NNE 3.5 mph - N/A   Unknown
12:20 PM 77.0 °F - 55.4 °F 47% 29.77 in 3.1 mi Variable 2.3 mph - N/A   Mostly Cloudy
12:50 PM 75.2 °F - 50.0 °F 41% 29.77 in 5.0 mi ESE 9.2 mph - N/A   Mostly Cloudy
1:20 PM 77.0 °F - 50.0 °F 39% 29.74 in 5.0 mi East 9.2 mph - N/A   Mostly Cloudy
1:50 PM 77.0 °F - 46.4 °F 34% 29.74 in 5.0 mi East 11.5 mph - N/A   Scattered Clouds
2:20 PM 77.0 °F - 42.8 °F 29% 29.74 in 5.0 mi East 12.7 mph - N/A   Mostly Cloudy
2:50 PM 77.0 °F - 42.8 °F 29% 29.71 in 5.0 mi East 13.8 mph - N/A   Mostly Cloudy
3:20 PM 75.2 °F - 42.8 °F 31% 29.71 in 6.2 mi SE 11.5 mph - N/A   Mostly Cloudy
3:50 PM 75.2 °F - 42.8 °F 31% 29.68 in 6.2 mi SE 10.4 mph - N/A   Mostly Cloudy
4:20 PM 75.2 °F - 46.4 °F 36% 29.68 in 6.2 mi SE 9.2 mph - N/A   Mostly Cloudy
4:50 PM 73.4 °F - 46.4 °F 38% 29.68 in 6.2 mi SE 9.2 mph - N/A   Mostly Cloudy
5:20 PM 73.4 °F - 46.4 °F 38% 29.68 in 6.2 mi SE 8.1 mph - N/A   Mostly Cloudy
5:50 PM 71.6 °F - 48.2 °F 43% 29.68 in 6.2 mi ESE 6.9 mph - N/A   Mostly Cloudy
6:20 PM 69.8 °F - 41.0 °F 35% 29.68 in 6.2 mi SSW 8.1 mph - N/A   Mostly Cloudy
6:50 PM 66.2 °F - 46.4 °F 49% 29.68 in 6.2 mi North 4.6 mph - N/A   Mostly Cloudy
7:20 PM 64.4 °F - 46.4 °F 52% 29.68 in 6.2 mi North 4.6 mph - N/A   Mostly Cloudy
7:50 PM 66.2 °F - 46.4 °F 49% 29.68 in 6.2 mi NNW 5.8 mph - N/A   Mostly Cloudy
8:20 PM 68.0 °F - 42.8 °F 40% 29.68 in 6.2 mi Variable 6.9 mph - N/A   Mostly Cloudy
8:50 PM 66.2 °F - 44.6 °F 46% 29.68 in 6.2 mi North 8.1 mph - N/A   Mostly Cloudy
9:04 PM 66.2 °F - 44.6 °F 46% 29.71 in 6.2 mi SW 16.1 mph - N/A   Mostly Cloudy
9:08 PM 66.2 °F - 44.6 °F 46% 29.71 in 6.2 mi SW 19.6 mph 32.2 mph N/A   Mostly Cloudy
9:20 PM 66.2 °F - 44.6 °F 46% 29.71 in 6.2 mi WSW 16.1 mph - N/A   Mostly Cloudy
9:33 PM 64.4 °F - 48.2 °F 56% 29.71 in 6.2 mi WSW 15.0 mph - N/A Rain Light Rain Showers
9:50 PM 60.8 °F - 50.0 °F 68% 29.68 in 6.2 mi West 15.0 mph - N/A Rain Light Rain Showers
10:10 PM 60.8 °F - 50.0 °F 68% 29.68 in 6.2 mi West 15.0 mph - N/A   Mostly Cloudy
10:20 PM 60.8 °F - 50.0 °F 68% 29.68 in 6.2 mi West 12.7 mph - N/A   Mostly Cloudy
10:50 PM 59.0 °F - 50.0 °F 72% 29.68 in 6.2 mi Variable 4.6 mph - N/A   Mostly Cloudy
11:20 PM 59.0 °F - 48.2 °F 67% 29.65 in 6.2 mi ESE 4.6 mph - N/A   Mostly Cloudy
11:50 PM 59.0 °F - 50.0 °F 72% 29.65 in 6.2 mi SW 6.9 mph - N/A Rain Light Rain Showers